Home > Time Zones > World Clock > Weather > Chad > Sarh > Past weeks

Flag for Chad Weather past 2 weeks in Sarh, Chad

Now
88 °F

Thunderstorms. Partly sunny.


Feels Like: 94 °F
Forecast: 75 / 90 °F
Wind: 5 mph from West

Location: Sarh Airport

Current Time: Oct 2, 2014 at 4:01:31 PM

Latest Report: Oct 2, 2014 at 3:00 PM


Visibility: N/A

Pressure: 29.95 "Hg

Humidity: 59%

Dew point: 72 °F

Location of SarhLocation

Historic Weather in Sarh — Graph

°F

Sarh temperature yesterday

Maximum temperature yesterday: 90 °F (at 3:00 PM)
Minimum temperature yesterday: 72 °F (at 9:00 PM)
Average temperature yesterday: 79 °F

Past Weeks' High & Low Weather Summary

 TemperatureHumidityPressure
High93 °F (Sep 23, 3:00 PM)100% (Sep 18, 6:00 AM)32.52 "Hg (Sep 18, 6:00 AM)
Low52 °F (Sep 18, 6:00 AM)29% (Sep 26, 3:00 AM)29.80 "Hg (Sep 25, 6:00 PM)
Average79 °F80%29.93 "Hg
* Reported Sep 17 3:00 PM — Oct 2 2:00 PM, Sarh, Weather by CustomWeather, © 2014

Note: Actual official high and low records may vary slightly from our data, if they occured in-between our weather recording intervals... More about our weather records

Advertising

Sarh weather history for previous 24 hours

 ConditionsComfort  
Time TempWeatherWind HumidityBarometerVisibility
2:00 PM
Oct 2
86 °FPartly sunny.2 mph66%29.95 "HgN/A
1:00 PM84 °FPartly sunny.No wind70%29.95 "HgN/A
12:00 PM84 °FPartly sunny.2 mph70%29.95 "HgN/A
11:00 AM82 °FScattered clouds.2 mph74%29.98 "HgN/A
10:00 AM77 °FScattered clouds.No wind83%29.98 "HgN/A
9:00 AM75 °FScattered clouds.No wind89%29.98 "HgN/A
8:00 AM73 °FScattered clouds.No wind94%29.98 "HgN/A
7:00 AM73 °FScattered clouds.No wind94%29.98 "HgN/A
6:00 AM72 °FPartly sunny.6 mph94%29.98 "HgN/A
5:00 AM72 °FPassing clouds.7 mph94%29.95 "HgN/A
4:00 AM72 °FPassing clouds.5 mph94%29.95 "HgN/A
3:00 AM72 °FClear.2 mph94%29.92 "Hg10 mi
2:00 AM72 °FMild.6 mph94%29.92 "HgN/A
1:00 AM72 °FMild.No wind94%29.98 "HgN/A
12:00 AM72 °FMild.No wind94%29.95 "HgN/A
11:00 PM
Oct 1
72 °FMild.No wind94%29.95 "HgN/A
10:00 PM73 °FMild.No wind89%29.95 "HgN/A
9:00 PM72 °FMild.No wind94%29.95 "HgN/A
8:00 PM73 °FPassing clouds.No wind89%29.92 "HgN/A
7:00 PM75 °FPassing clouds.No wind78%29.92 "HgN/A
6:00 PM75 °FPassing clouds.3 mph78%29.89 "HgN/A
5:00 PM75 °FPassing clouds.8 mph78%29.89 "HgN/A
4:00 PM82 °FScattered clouds.14 mph66%29.86 "HgN/A
Weather by CustomWeather, © 2014

See weather overviewHow to use our weather pages